Погода в Пятидорожном

Россия / Калининградская область     54°30′09″N   20°05′46″E
темп.,
°C
ветер,
м/с
пор.,
м/с
влажн.,
%
обл.,
%
осадки,
мм/ч
давл.,
гПа
погр.,
м
12 апреля, пн
пн1223:00+10ююв61080100 0.0 1015153
02:00+11ююв71376100 0.0 1015303
05:00+10ююв71482100 0.0 1015322
08:00+10ю6108497 0.0 1016377
11:00+7сз8887100 0.1 1017316
14:00+4сз7992100 0.3 1019503
17:00+3сз8994100 0.6 1021626
20:00+3зсз6989100 1.3 1023736
13 апреля, вт
вт1323:00+4з698399 0.1 1023520
02:00+4зсз598480 0.1 1024335
05:00+3зсз4883100 0.0 1024229
08:00+4з4776100 0.0 1025389
11:00+5з5665100 0.0 1026561
14:00+6зсз3552100 0.0 1026538
17:00+5ссз4570100 0.0 1026386
20:00+4с2382100 0.0 102688
14 апреля, ср
ср1423:00+4зсз2383100 0.0 102583
02:00+3зюз4685100 0.0 1025172
05:00+3зсз3483100 0.0 1024127
08:00+4сз4582100 0.0 1024312
11:00+6сз4575100 0.0 1024532
14:00+7с6767100 0.0 1024810
17:00+5с7971100 0.0 1024590
20:00+4с81276100 0.0 1025485
15 апреля, чт
чт1523:00+3ссв81277100 0.0 1025474
02:00+3ссв71183100 0.0 1024437
05:00+3ссв71181100 0.0 1024475
08:00+3ссв81272100 0.0 1024536
11:00+5ссв8116997 0.0 1024678
14:00+7ссв8115973 0.0 1024766
17:00+7с8116757 0.0 1023584
20:00+5ссв71374100 0.0 1024295
16 апреля, пт
пт1623:00+5св7136999 0.0 1024430
02:00+4св7127454 0.0 1024374
05:00+3св71278100 0.0 1024423
08:00+4св81272100 0.0 1025560
11:00+5св797296 0.0 1025840
14:00+4всв71089100 0.1 1026662
17:00+5всв51083100 0.1 1027509
20:00+5всв41092100 0.6 1028342